Αρχική σελίδα
METAR-TAF:

METAR-TAF

Αεροδρόμια :

Council Bluffs, Αϊόβα, Ηνωμένες Πολιτείες Αμερικής

γεωγραφικό πλάτος: 41-16N, γεωγραφικό μήκος: 095-46W, υψόμετρο: 382 μ

Παρών καιρός

Η αναφορά έγινε 14 λεπτά πριν, στις 10:15 UTC
Άνεμος 5 kt από ΝA
Θερμοκρασία 3°C
Υγρασία 100%
Πίεση 1027 hPa
Ορατότητα: 16.1 χλμ
Αρκετά νέφη σε ύψος 5000 πόδια
Νεφοσκεπής σε ύψος 5500 πόδια

METAR: KCBF 261015Z AUTO 13005KT 10SM BKN050 OVC055 03/03 A3034 RMK AO2

Χρόνος: 05:29 (10:29 UTC)


TAF: λείπει

Μετεωρολογικές αναφορές και προγνώσεις για περισσότερα από 4000 αεροδρόμια (δελτία METAR και TAF).

Οι διαθέσιμοι σταθμοί απεικονίζονται στο χάρτη με κίτρινες και κόκκινες κουκκίδες.

Μετακινήστε το ποντίκι πάνω από τις κουκκίδες για να δείτε το όνομα του σταθμού.

Στη συνέχεια, κάντε κλικ για να δείτε τις μετεωρολογικές αναφορές και τις προγνώσεις καιρού.

Για να αλλάξετε το χάρτη: κάντε κλικ στα πράσινα κουμπιά με τον μαύρο σταυρό για να ζουμάρετε, στο πράσινο κουμπί με την παύλα για να αφαιρέσετε το ζουμ ή στα πράσινα βέλη για να αντιπαραβάλλετε χάρτες.


METAR-TAF: